| time (UTC) | temp F | wind direction | speed MPH | gust MPH | rain 1hr in | rain 24hr in | rain mn in | humidity % | barometer mb |
| 20260507191826 | 52 | 186 | 2.0 | 2.0 | 0.00 | 0.00 | 0.00 | 71 | 1001.4 |
| 20260507190328 | 52 | 162 | 0.0 | 0.0 | 0.00 | 0.00 | 0.00 | 73 | 1001.4 |
| 20260507184825 | 53 | 182 | 0.0 | 0.0 | 0.00 | 0.00 | 0.00 | 71 | 1001.0 |
| 20260507183329 | 54 | 189 | 0.0 | 1.0 | 0.00 | 0.00 | 0.00 | 67 | 1001.0 |
| 20260507181825 | 54 | 179 | 0.0 | 1.0 | 0.00 | 0.00 | 0.00 | 65 | 1000.7 |
| 20260507180326 | 54 | 199 | 0.0 | 0.0 | 0.00 | 0.00 | 0.00 | 66 | 1000.7 |
| 20260507174827 | 55 | 170 | 0.0 | 0.0 | 0.00 | 0.00 | 0.00 | 65 | 1001.0 |
| 20260507173326 | 55 | 179 | 0.0 | 0.0 | 0.00 | 0.00 | 0.00 | 65 | 1001.0 |
| 20260507171825 | 55 | 184 | 0.0 | 1.0 | 0.00 | 0.00 | 0.00 | 61 | 1001.0 |
| 20260507170328 | 56 | 145 | 1.0 | 1.0 | 0.00 | 0.00 | 0.00 | 60 | 1001.0 |
| 20260507164825 | 56 | 188 | 2.0 | 3.0 | 0.00 | 0.00 | 0.00 | 59 | 1001.0 |
| 20260507163325 | 56 | 198 | 2.0 | 2.0 | 0.00 | 0.00 | 0.00 | 58 | 1001.0 |
| 20260507161826 | 56 | 198 | 3.0 | 3.0 | 0.00 | 0.00 | 0.00 | 58 | 1001.0 |
| 20260507160328 | 57 | 136 | 0.0 | 1.0 | 0.00 | 0.00 | 0.00 | 57 | 1001.0 |
| 20260507154825 | 57 | 147 | 1.0 | 2.0 | 0.00 | 0.00 | 0.00 | 57 | 1001.0 |
| 20260507153324 | 56 | 170 | 2.0 | 2.0 | 0.00 | 0.00 | 0.00 | 58 | 1001.0 |
| 20260507151825 | 56 | 169 | 2.0 | 2.0 | 0.00 | 0.00 | 0.00 | 59 | 1001.4 |
| 20260507150324 | 56 | 147 | 1.0 | 2.0 | 0.00 | 0.00 | 0.00 | 58 | 1001.4 |
| 20260507144827 | 56 | 122 | 2.0 | 3.0 | 0.00 | 0.00 | 0.00 | 61 | 1001.4 |
| 20260507143327 | 56 | 172 | 2.0 | 6.0 | 0.00 | 0.00 | 0.00 | 60 | 1001.7 |
| 20260507141825 | 55 | 194 | 4.0 | 7.0 | 0.00 | 0.00 | 0.00 | 61 | 1002.0 |
| 20260507140325 | 54 | 191 | 4.0 | 4.0 | 0.00 | 0.00 | 0.00 | 63 | 1002.0 |
| 20260507134825 | 53 | 139 | 1.0 | 2.0 | 0.00 | 0.00 | 0.00 | 64 | 1002.0 |
| 20260507133325 | 52 | 137 | 2.0 | 2.0 | 0.00 | 0.00 | 0.00 | 65 | 1002.0 |
| 20260507131825 | 52 | 185 | 3.0 | 4.0 | 0.00 | 0.00 | 0.00 | 65 | 1002.0 |
| 20260507130327 | 51 | 163 | 2.0 | 3.0 | 0.00 | 0.00 | 0.00 | 65 | 1002.4 |
| 20260507124825 | 50 | 170 | 0.0 | 0.0 | 0.00 | 0.00 | 0.00 | 69 | 1002.4 |
| 20260507123326 | 50 | 122 | 1.0 | 2.0 | 0.00 | 0.00 | 0.00 | 72 | 1002.4 |
| 20260507121825 | 50 | 164 | 5.0 | 6.0 | 0.00 | 0.00 | 0.00 | 69 | 1002.0 |
| 20260507120325 | 50 | 110 | 7.0 | 9.0 | 0.00 | 0.00 | 0.00 | 69 | 1002.0 |
| 20260507114825 | 50 | 122 | 2.0 | 3.0 | 0.00 | 0.00 | 0.00 | 71 | 1002.4 |
| 20260507113325 | 50 | 124 | 2.0 | 2.0 | 0.00 | 0.00 | 0.00 | 73 | 1002.4 |
| 20260507111826 | 50 | 90 | 2.0 | 4.0 | 0.00 | 0.00 | 0.00 | 72 | 1002.4 |
| 20260507110325 | 50 | 169 | 4.0 | 6.0 | 0.00 | 0.00 | 0.00 | 71 | 1002.4 |
| 20260507104826 | 51 | 123 | 3.0 | 7.0 | 0.00 | 0.00 | 0.00 | 71 | 1002.4 |
| 20260507103325 | 50 | 122 | 0.0 | 0.0 | 0.00 | 0.00 | 0.00 | 72 | 1002.4 |
| 20260507101825 | 50 | 127 | 1.0 | 2.0 | 0.00 | 0.00 | 0.00 | 72 | 1002.7 |
| 20260507100325 | 50 | 145 | 2.0 | 2.0 | 0.00 | 0.00 | 0.00 | 74 | 1002.7 |
| 20260507094826 | 51 | 143 | 2.0 | 2.0 | 0.00 | 0.00 | 0.00 | 73 | 1002.7 |
| 20260507093325 | 50 | 80 | 2.0 | 4.0 | 0.00 | 0.00 | 0.00 | 73 | 1002.4 |
| 20260507091825 | 49 | 85 | 3.0 | 3.0 | 0.00 | 0.00 | 0.00 | 75 | 1002.4 |
| 20260507090326 | 49 | 99 | 2.0 | 3.0 | 0.00 | 0.00 | 0.00 | 74 | 1002.4 |
| 20260507084825 | 48 | 108 | 2.0 | 2.0 | 0.00 | 0.00 | 0.00 | 75 | 1002.4 |
| 20260507083326 | 48 | 108 | 2.0 | 7.0 | 0.00 | 0.00 | 0.00 | 74 | 1002.4 |
| 20260507081824 | 47 | 109 | 3.0 | 4.0 | 0.00 | 0.00 | 0.00 | 75 | 1002.4 |
| 20260507080325 | 46 | 121 | 3.0 | 4.0 | 0.00 | 0.00 | 0.00 | 76 | 1002.7 |
| 20260507074826 | 46 | 125 | 0.0 | 0.0 | 0.00 | 0.00 | 0.00 | 77 | 1002.4 |
| 20260507073325 | 45 | 109 | 1.0 | 2.0 | 0.00 | 0.00 | 0.00 | 77 | 1002.7 |
| 20260507071825 | 45 | 138 | 0.0 | 1.0 | 0.00 | 0.00 | 0.00 | 77 | 1002.4 |
| 20260507070326 | 44 | 137 | 2.0 | 3.0 | 0.00 | 0.00 | 0.00 | 78 | 1002.4 |
| 20260507064827 | 44 | 102 | 5.0 | 8.0 | 0.00 | 0.00 | 0.00 | 78 | 1002.4 |
| 20260507063326 | 43 | 146 | 1.0 | 1.0 | 0.00 | 0.00 | 0.00 | 79 | 1002.4 |
| 20260507061826 | 43 | 120 | 3.0 | 6.0 | 0.00 | 0.00 | 0.00 | 79 | 1002.4 |
| 20260507060325 | 42 | 107 | 4.0 | 7.0 | 0.00 | 0.00 | 0.00 | 81 | 1002.4 |
| 20260507054825 | 42 | 111 | 2.0 | 2.0 | 0.00 | 0.00 | 0.00 | 83 | 1002.0 |
| 20260507053324 | 41 | 159 | 2.0 | 3.0 | 0.00 | 0.00 | 0.00 | 83 | 1002.0 |
| 20260507051825 | 42 | 153 | 2.0 | 3.0 | 0.00 | 0.00 | 0.00 | 82 | 1002.0 |
| 20260507050325 | 42 | 112 | 2.0 | 4.0 | 0.00 | 0.00 | 0.00 | 83 | 1002.0 |
| 20260507044825 | 41 | 103 | 2.0 | 2.0 | 0.00 | 0.00 | 0.00 | 83 | 1002.0 |
| 20260507043325 | 41 | 134 | 1.0 | 2.0 | 0.00 | 0.00 | 0.00 | 83 | 1002.4 |
| 20260507041826 | 41 | 94 | 4.0 | 6.0 | 0.00 | 0.00 | 0.00 | 83 | 1002.0 |
| 20260507040325 | 41 | 142 | 3.0 | 6.0 | 0.00 | 0.00 | 0.00 | 83 | 1002.0 |
| 20260507034824 | 41 | 113 | 2.0 | 3.0 | 0.00 | 0.00 | 0.00 | 83 | 1002.0 |
| 20260507033325 | 41 | 85 | 1.0 | 2.0 | 0.00 | 0.00 | 0.00 | 83 | 1002.0 |
| 20260507031824 | 41 | 85 | 2.0 | 3.0 | 0.00 | 0.00 | 0.00 | 84 | 1002.0 |
| 20260507030326 | 41 | 143 | 2.0 | 2.0 | 0.00 | 0.00 | 0.00 | 84 | 1002.0 |
| 20260507024825 | 41 | 124 | 2.0 | 2.0 | 0.00 | 0.00 | 0.00 | 84 | 1002.4 |
| 20260507023325 | 41 | 95 | 2.0 | 3.0 | 0.00 | 0.00 | 0.00 | 84 | 1002.4 |
| 20260507021825 | 41 | 142 | 3.0 | 4.0 | 0.00 | 0.00 | 0.00 | 85 | 1002.4 |
| 20260507020326 | 41 | 137 | 3.0 | 6.0 | 0.00 | 0.00 | 0.00 | 85 | 1002.4 |
| 20260507014826 | 40 | 78 | 2.0 | 4.0 | 0.00 | 0.00 | 0.00 | 86 | 1002.4 |
| 20260507013325 | 40 | 119 | 1.0 | 2.0 | 0.00 | 0.00 | 0.00 | 86 | 1002.4 |
| 20260507011825 | 40 | 106 | 1.0 | 3.0 | 0.00 | 0.00 | 0.00 | 85 | 1002.4 |
| 20260507010326 | 40 | 135 | 1.0 | 3.0 | 0.00 | 0.00 | 0.00 | 85 | 1002.4 |
| 20260507004825 | 40 | 101 | 3.0 | 4.0 | 0.00 | 0.00 | 0.00 | 85 | 1002.4 |
| 20260507003325 | 40 | 130 | 0.0 | 0.0 | 0.00 | 0.00 | 0.00 | 85 | 1002.7 |
| 20260507001825 | 40 | 110 | 4.0 | 6.0 | 0.00 | 0.00 | 0.00 | 85 | 1002.7 |
| 20260507000328 | 39 | 121 | 1.0 | 1.0 | 0.00 | 0.00 | 0.00 | 85 | 1002.7 |
| 20260506234825 | 40 | 172 | 2.0 | 2.0 | 0.00 | 0.00 | 0.00 | 84 | 1002.7 |
| 20260506233325 | 39 | 83 | 5.0 | 7.0 | 0.00 | 0.00 | 0.00 | 84 | 1002.7 |
| 20260506231826 | 39 | 119 | 1.0 | 2.0 | 0.00 | 0.00 | 0.00 | 85 | 1002.7 |
| 20260506230325 | 39 | 113 | 1.0 | 2.0 | 0.00 | 0.00 | 0.00 | 84 | 1002.7 |
| 20260506224825 | 40 | 130 | 2.0 | 3.0 | 0.00 | 0.00 | 0.00 | 83 | 1002.7 |
| 20260506223325 | 40 | 149 | 1.0 | 2.0 | 0.00 | 0.00 | 0.00 | 82 | 1002.7 |
| 20260506221825 | 40 | 154 | 4.0 | 6.0 | 0.00 | 0.00 | 0.00 | 82 | 1002.7 |
| 20260506220325 | 40 | 94 | 2.0 | 3.0 | 0.00 | 0.00 | 0.00 | 83 | 1002.7 |
| 20260506214825 | 40 | 117 | 3.0 | 4.0 | 0.00 | 0.00 | 0.00 | 82 | 1002.7 |
| 20260506213325 | 40 | 120 | 2.0 | 3.0 | 0.00 | 0.00 | 0.00 | 80 | 1002.7 |
| 20260506211825 | 40 | 103 | 4.0 | 6.0 | 0.00 | 0.00 | 0.00 | 80 | 1002.7 |
| 20260506210326 | 41 | 121 | 2.0 | 2.0 | 0.00 | 0.00 | 0.00 | 78 | 1002.7 |
| 20260506204825 | 41 | 170 | 2.0 | 3.0 | 0.00 | 0.00 | 0.00 | 77 | 1002.4 |
| 20260506203326 | 42 | 69 | 1.0 | 1.0 | 0.00 | 0.00 | 0.00 | 77 | 1002.4 |
| 20260506201825 | 43 | 120 | 1.0 | 2.0 | 0.00 | 0.00 | 0.00 | 75 | 1002.4 |
| 20260506200325 | 44 | 136 | 1.0 | 2.0 | 0.00 | 0.00 | 0.00 | 73 | 1002.4 |
| 20260506194826 | 45 | 101 | 1.0 | 2.0 | 0.00 | 0.00 | 0.00 | 71 | 1002.0 |
| 20260506193325 | 46 | 99 | 2.0 | 2.0 | 0.00 | 0.00 | 0.00 | 69 | 1002.0 |